Location: Boiro
(42.6475°N, 8.8834°W)
Time: 01:24:34
(UTC+01:00)

Transit 2A Rocket - Pass Details

Date: 07 December 2021
Orbit: 584 x 917 km, 66.7° (Epoch: 23 January)

Event Time Altitude Azimuth Distance (km) Brightness Sun altitude
Rises 15:35:09 0° 335° (NNW) 3,564 8.1 18.3°
Reaches altitude 10° 15:38:18 10° 350° (N) 2,609 7.4 18.0°
Maximum altitude 15:43:01 23° 41° (NE) 1,820 6.5 17.6°
Drops below altitude 10° 15:47:34 10° 92° (E) 2,505 7.4 17.1°
Sets 15:50:30 0° 107° (ESE) 3,388 8.2 16.8°
